Regional Weather Roundup
Issued by NWS

Home | Current Version | Previous Version | Text Only | Print | Product List | Glossary Off
Versions: 1 2 3 4 5 6 7 8 9 10 11 12 13 14 15 16 17 18 19 20 21 22 23 24 25 26 27 28 29 30 31 32 33 34 35 36 37 38 39 40 41 42 43 44 45 46 47 48 49 50

000
ASUS45 KTFX 290019
RWRMT
MONTANA HOURLY WEATHER ROUNDUP
NATIONAL WEATHER SERVICE GREAT FALLS MT
619 PM MDT THU AUG 28 2014

NOTE: "FAIR" INDICATES FEW OR NO CLOUDS BELOW 12000 FEET WITH NO
SIGNIFICANT WEATHER AND/OR OBSTRUCTIONS TO VISIBILITY.

* THESE STATIONS ARE NOT UNDER NWS QUALITY CONTROL. THEY DO NOT
   REPORT WEATHER SUCH AS PRECIPITATION OR FOG.

MTZ001>007-043-290100-
WEST OF THE DIVIDE
CITY           SKY/WX    TMP DP  RH WIND       PRES   REMARKS
KALISPELL      MOCLDY    81  43  26 SW12G22   29.92S
MISSOULA       MOCLDY    82  37  20 W15       29.97R
BUTTE          MOCLDY    79  39  24 NW10      30.06S
MULLAN PASS    MOCLDY    63  41  45 SW8       30.15S
* LINCOLN      N/A       82  37  20 SW7G17     N/A
* LOOKOUT PASS N/A       69  43  39 SE7G13     N/A
* POLSON       N/A       78  43  29 NW3        N/A
* RONAN APT    CLOUDY    79  46  31 W9         N/A
* SEELEY LAKE  N/A       78  34  20 W8G20      N/A
* THOMP F APT  MOCLDY    76  43  31 SW8G18     N/A
$$

MTZ008-052>055-290100-
SOUTHWEST MONTANA
CITY           SKY/WX    TMP DP  RH WIND       PRES   REMARKS
BOZEMAN        FAIR      82  46  28 N6        29.97F
DILLON         CLEAR     82  39  22 W9        30.02F
W YELLOWSTONE  PTCLDY    72  45  38 SW12G22   30.18F
* THREE FORKS  PTCLDY    88  61  40 W6         N/A   HI  88
* BOULDER HILL N/A       78  35  21 VRB2G9     N/A
* MONIDA PASS  N/A       71  42  35 SW17G26    N/A
* RAYNOLDS PAS N/A       74  60  62 S15G20     N/A
* WHITEHALL    N/A       87  40  19 W8G16      N/A
* WISE RIVER   N/A       80  39  23 NW14G24    N/A
$$

MTZ009>010-012-014-046-048-049-054-290100-
EAST SLOPES AND CENTRAL MONTANA
CITY           SKY/WX    TMP DP  RH WIND       PRES   REMARKS
CUT BANK       CLOUDY    81  45  28 SW21      29.92S
GREAT FALLS    PTCLDY    84  39  20 SW18      29.88F
HELENA         CLEAR     86  37  17 W20G26    29.92F
MALMSTROM AFB  PTCLDY    84  39  20 W13G24    29.89F
* CONRAD       MOCLDY    82  48  31 NW14       N/A
* EAST GLACIER N/A       71  43  37 W12G20     N/A
* MONARCH      N/A       77  37  24 W15G24     N/A
* PENDROY      N/A       77  35  22 NW16G21    N/A
* ROGERS PASS  N/A       75  33  22 NE4G16     N/A
* SAINT MARY   N/A       74  41  31 S6G17      N/A
* SWEET GRASS  N/A       72  50  46 NE11       N/A
* WHITE SULPH  N/A       81  43  26 W6G13      N/A
$$

MTZ011-013-016-021-035-040-045-047-050-051-290100-
NORTH CENTRAL MONTANA
CITY           SKY/WX    TMP DP  RH WIND       PRES   REMARKS
HAVRE          PTCLDY    84  50  31 N7        29.84F
LEWISTOWN      PTCLDY    82  43  25 NW5       29.93F
* CHINOOK      CLEAR     82  52  35 N5        29.83F
* FORT BENTON  PTCLDY    88  43  21 S10       29.82F
* CHESTER      N/A       73  51  46 NE13G18    N/A
* DENTON       N/A       85  41  21 W12G21     N/A
* GEYSER       N/A       83  41  23 W13G22     N/A
* JUDITH GAP   N/A       80  40  24 NW8        N/A
* LOMA         N/A       86  46  25 N/A        N/A
$$

MTZ017>020-022>027-061-062-290100-
NORTHEAST MONTANA
CITY           SKY/WX    TMP DP  RH WIND       PRES   REMARKS
GLASGOW        CLEAR     86  46  25 NW10      29.81S
GLENDIVE       CLEAR     84  55  37 W8        29.84S
JORDAN         CLEAR     86  43  22 W13       29.84F
SIDNEY         CLEAR     86  52  31 W3        29.80S
WOLF POINT     FAIR      88  50  27 W13G21    29.79F
* BEAVER HILL  N/A       84  48  29 W10        N/A
* CIRCLE       N/A       86  54  33 NW2G10     N/A
* LINDSAY DVD  N/A       84  50  31 W10        N/A
* NAVAJO       N/A       84  49  30 W12G19     N/A
$$

MTZ028>042-056>058-290100-
SOUTHCENTRAL AND SOUTHEAST MONTANA
CITY           SKY/WX    TMP DP  RH WIND       PRES   REMARKS
BAKER          CLEAR     84  46  26 W9        29.88F
BILLINGS       FAIR      88  43  21 N3        29.92F
LIVINGSTON     CLEAR     86  39  19 W15G25    29.96F
MILES CITY     FAIR      88  43  21 W16       29.84F
* LAUREL APT   CLEAR     88  45  22 E5         N/A
* ROUNDUP APT  CLEAR     86  43  22 NW7        N/A
* ALZADA       N/A       83  45  26 NW5G10     N/A
* HYSHAM       N/A       86  41  20 NE4        N/A
* LAME DEER    N/A       81  41  24 W12G19     N/A
* REED POINT   N/A       87  41  20 W12G19     N/A
* ROSCOE HILL  N/A       78  28  16 E9         N/A
$$

REGIONAL REPORTS...DAKOTAS
CITY           SKY/WX    TMP DP  RH WIND       PRES   REMARKS
WILLISTON      CLOUDY    90  50  25 NW5       29.76F
DICKINSON      PTCLDY    84  54  36 NW5       29.83F
BEACH          N/A       81  57  44 NW3       29.85F HI  81
CROSBY         CLEAR     84  54  36 W6        29.74F
TIOGA          PTCLDY    86  52  31 SW13      29.80F
WATFORD CITY   PTCLDY    88  50  27 SW8       29.76F
BISMARCK       CLOUDY    73  66  79 SE7       29.85F
GRAND FORKS    CLOUDY    72  64  76 S14       29.85F
FARGO          LGT RAIN  68  64  87 SE10      29.89S
BUFFALO SD     PTCLDY    84  48  29 N8        29.83S
RAPID CITY     CLOUDY    75  57  54 CALM      29.92F
$$

REGIONAL REPORTS...WYOMING/IDAHO/WASHINGTON
CITY           SKY/WX    TMP DP  RH WIND       PRES   REMARKS
GILLETTE       CLEAR     82  43  25 NW10      29.99S
SHERIDAN       PTCLDY    84  41  22 NW13      29.96F
CODY           CLOUDY    81  43  26 SE10      30.03S
YELLOWSTONE LA PTCLDY    66  37  34 W9        30.29S
SALMON         PTCLDY    81  59  47 SW6       29.93F HI  81
MULLAN PASS    MOCLDY    63  41  45 SW8       30.15S
SPOKANE        PTCLDY    82  41  23 SW12      29.95F
$$

REGIONAL REPORTS...ALBERTA
CITY           SKY/WX    TMP DP  RH WIND       PRES   REMARKS
CALGARY        LGT RAIN  52  45  77 W3        30.06F
LETHBRIDGE     TSTM      54  50  86 N16G23    30.01S
MEDICINE HAT   TSTM      55  54  96 NW21G33   29.97R
EDMONTON       PTCLDY    66  39  37 NW3       29.98S
WATERTON GATE  N/A       50  46  86 NE7        N/A
CARDSTON       N/A       50  50 100 N17G23     N/A
$$

REGIONAL REPORTS...SASKATCHEWAN
CITY           SKY/WX    TMP DP  RH WIND       PRES   REMARKS
SWIFT CURRENT  PTCLDY    72  54  53 N9        29.85S
MOOSE JAW      PTCLDY    73  55  53 N14       29.81R
REGINA         MOCLDY    75  55  50 N21G26    29.78R
VAL MARIE      N/A       75  55  50 NW14       N/A
ASSINIBOIA     N/A       77  57  50 N17        N/A
CORONACH       N/A       82  52  35 NW15G21    N/A

$$



USA.gov is the U.S. government's official web portal to all federal, state and local government web resources and services.